Lakeville, MN

7:45 AM CDT on October 22, 2017 (GMT -0500)
Airlake

Weather History for KLVN - January, 2012

Change the Weather History Date:

Monday, January 9, 2012

  Actual Average Record
Temperature  
Mean Temperature 40 °F -  
Max Temperature 46 °F 18 °F 48 °F (2002)
Min Temperature 32 °F 0 °F -35 °F (1977)
Degree Days  
Heating Degree Days 26    
Moisture  
Dew Point 27 °F    
Average Humidity 65    
Maximum Humidity 81    
Minimum Humidity 49    
Precipitation  
Precipitation 0.00 in - - ()
Sea Level Pressure  
Sea Level Pressure 29.93 in    
Wind  
Wind Speed 9 mph (WSW)    
Max Wind Speed 16 mph    
Max Gust Speed 25 mph    
Visibility 10 miles    
Events      
Averages and records for this station are not official NWS values.
T = Trace of Precipitation, MM = Missing Value Source: NWS Daily Summary

Daily Weather History Graph

Daily Weather History Graph

Search for Another Location

Airport or City:

Trip Planner

Search our weather history database for the weather conditions in past years. The results will help you decide how hot, cold, wet, or windy it might be!

Date:

Astronomy

Jan. 09, 2012 Rise Set
Actual Time 7:49 AM CST 4:51 PM CST
Civil Twilight 7:16 AM CST 5:24 PM CST
Nautical Twilight 6:39 AM CST 6:00 PM CST
Astronomical Twilight 6:04 AM CST 6:35 PM CST
Moon 5:40 PM CST (1/9) 7:47 AM CST (1/9)
Length of Visible Light 10h 07m
Length of Day
9h 02m
Full, 100% of the Moon is Illuminated
Jan 9
Full
Jan 16
Last Quarter
Jan 23
New
Jan 30
First Quarter
Feb 7
Full

Hourly Weather History & Observations

Time (CST) Temp. Windchill Dew Point Humidity Pressure Visibility Wind Dir Wind Speed Gust Speed Precip Events Conditions
12:07 AM 35.6 °F 29.9 °F 26.6 °F 70% 30.06 in 10.0 mi SW 6.9 mph - N/A   Clear
12:27 AM 33.8 °F 27.0 °F 26.6 °F 75% 30.04 in 10.0 mi SW 8.1 mph - N/A   Clear
1:07 AM 33.8 °F 27.0 °F 26.6 °F 75% 30.03 in 10.0 mi SW 8.1 mph - N/A   Clear
1:27 AM 33.8 °F 25.8 °F 26.6 °F 75% 30.02 in 10.0 mi WSW 10.4 mph - N/A   Clear
1:47 AM 33.8 °F 27.0 °F 26.6 °F 75% 30.01 in 10.0 mi WSW 8.1 mph - N/A   Clear
2:07 AM 33.8 °F 26.4 °F 26.6 °F 75% 30.01 in 10.0 mi WSW 9.2 mph - N/A   Clear
2:28 AM 33.8 °F 27.0 °F 28.4 °F 81% 30.00 in 10.0 mi SW 8.1 mph - N/A   Clear
2:47 AM 33.8 °F 27.0 °F 28.4 °F 81% 29.99 in 10.0 mi WSW 8.1 mph - N/A   Clear
3:07 AM 33.8 °F 26.4 °F 28.4 °F 81% 29.97 in 10.0 mi SW 9.2 mph - N/A   Clear
3:28 AM 33.8 °F 27.0 °F 28.4 °F 81% 29.97 in 10.0 mi WSW 8.1 mph 18.4 mph N/A   Clear
3:47 AM 33.8 °F 26.4 °F 26.6 °F 75% 29.96 in 10.0 mi SW 9.2 mph 17.3 mph N/A   Clear
4:07 AM 33.8 °F 27.7 °F 26.6 °F 75% 29.95 in 10.0 mi WSW 6.9 mph 18.4 mph N/A   Clear
4:28 AM 33.8 °F 27.0 °F 26.6 °F 75% 29.95 in 10.0 mi SW 8.1 mph - N/A   Clear
4:47 AM 33.8 °F 27.0 °F 26.6 °F 75% 29.94 in 10.0 mi SW 8.1 mph - N/A   Clear
5:07 AM 33.8 °F 27.7 °F 26.6 °F 75% 29.94 in 10.0 mi SW 6.9 mph - N/A   Clear
5:27 AM 33.8 °F 27.7 °F 26.6 °F 75% 29.94 in 10.0 mi SW 6.9 mph - N/A   Clear
5:48 AM 33.8 °F 27.0 °F 24.8 °F 70% 29.93 in 10.0 mi WSW 8.1 mph 16.1 mph N/A   Clear
6:08 AM 33.8 °F 25.8 °F 24.8 °F 70% 29.92 in 10.0 mi SW 10.4 mph 16.1 mph N/A   Clear
6:27 AM 33.8 °F 25.3 °F 24.8 °F 70% 29.91 in 10.0 mi WSW 11.5 mph 17.3 mph N/A   Clear
6:48 AM 35.6 °F 28.6 °F 24.8 °F 65% 29.90 in 10.0 mi SW 9.2 mph 19.6 mph N/A   Mostly Cloudy
7:07 AM 35.6 °F 28.0 °F 24.8 °F 65% 29.90 in 10.0 mi WSW 10.4 mph 20.7 mph N/A   Mostly Cloudy
7:27 AM 35.6 °F 27.1 °F 24.8 °F 65% 29.90 in 10.0 mi WSW 12.7 mph 21.9 mph N/A   Scattered Clouds
7:48 AM 33.8 °F 23.9 °F 24.8 °F 70% 29.90 in 10.0 mi WSW 15.0 mph 19.6 mph N/A   Clear
8:07 AM 33.8 °F 24.3 °F 24.8 °F 70% 29.90 in 10.0 mi WSW 13.8 mph 21.9 mph N/A   Clear
8:28 AM 33.8 °F 24.3 °F 24.8 °F 70% 29.90 in 10.0 mi WSW 13.8 mph 20.7 mph N/A   Clear
8:47 AM 35.6 °F 25.9 °F 24.8 °F 65% 29.90 in 10.0 mi West 16.1 mph 25.3 mph N/A   Clear
9:07 AM 35.6 °F 25.9 °F 24.8 °F 65% 29.91 in 10.0 mi West 16.1 mph 23.0 mph N/A   Clear
9:28 AM 35.6 °F 27.1 °F 24.8 °F 65% 29.91 in 10.0 mi West 12.7 mph 18.4 mph N/A   Clear
10:07 AM 37.4 °F 29.8 °F 24.8 °F 60% 29.91 in 10.0 mi West 11.5 mph 17.3 mph N/A   Clear
10:27 AM 37.4 °F 30.8 °F 24.8 °F 60% 29.91 in 10.0 mi West 9.2 mph - N/A   Clear
10:47 AM 39.2 °F 32.0 °F 24.8 °F 56% 29.91 in 10.0 mi West 11.5 mph - N/A   Clear
11:08 AM 41.0 °F 34.7 °F 24.8 °F 53% 29.91 in 10.0 mi West 10.4 mph 18.4 mph N/A   Clear
11:27 AM 39.2 °F 31.6 °F 24.8 °F 56% 29.90 in 10.0 mi West 12.7 mph 23.0 mph N/A   Clear
11:47 AM 42.8 °F 36.6 °F 26.6 °F 53% 29.89 in 10.0 mi West 11.5 mph - N/A   Clear
12:08 PM 42.8 °F 35.1 °F 26.6 °F 53% 29.88 in 10.0 mi West 16.1 mph 19.6 mph N/A   Clear
12:27 PM 42.8 °F 36.2 °F 26.6 °F 53% 29.88 in 10.0 mi West 12.7 mph 18.4 mph N/A   Clear
12:47 PM 44.6 °F 38.4 °F 26.6 °F 49% 29.88 in 10.0 mi West 12.7 mph 19.6 mph N/A   Clear
1:07 PM 44.6 °F 39.2 °F 26.6 °F 49% 29.88 in 10.0 mi West 10.4 mph - N/A   Clear
1:27 PM 44.6 °F 38.4 °F 28.4 °F 53% 29.87 in 10.0 mi West 12.7 mph - N/A   Clear
1:48 PM 44.6 °F 38.8 °F 28.4 °F 53% 29.88 in 10.0 mi West 11.5 mph - N/A   Clear
2:07 PM 46.4 °F 41.9 °F 28.4 °F 50% 29.88 in 10.0 mi West 9.2 mph - N/A   Clear
2:27 PM 46.4 °F 41.1 °F 28.4 °F 50% 29.88 in 10.0 mi West 11.5 mph 18.4 mph N/A   Clear
2:48 PM 46.4 °F 41.1 °F 28.4 °F 50% 29.88 in 10.0 mi West 11.5 mph 16.1 mph N/A   Clear
3:07 PM 46.4 °F 41.9 °F 28.4 °F 50% 29.89 in 10.0 mi West 9.2 mph 16.1 mph N/A   Clear
3:27 PM 46.4 °F 41.9 °F 30.2 °F 53% 29.89 in 10.0 mi West 9.2 mph - N/A   Clear
3:48 PM 46.4 °F 41.9 °F 30.2 °F 53% 29.90 in 10.0 mi West 9.2 mph - N/A   Clear
4:08 PM 44.6 °F 40.2 °F 28.4 °F 53% 29.90 in 10.0 mi West 8.1 mph - N/A   Clear
4:27 PM 42.8 °F 39.3 °F 28.4 °F 57% 29.91 in 10.0 mi West 5.8 mph - N/A   Clear
4:48 PM 42.8 °F 40.1 °F 28.4 °F 57% 29.92 in 10.0 mi West 4.6 mph - N/A   Clear
5:07 PM 39.2 °F 37.0 °F 28.4 °F 65% 29.93 in 10.0 mi SW 3.5 mph - N/A   Clear
5:27 PM 39.2 °F - 28.4 °F 65% 29.93 in 10.0 mi Calm Calm - N/A   Clear
5:47 PM 39.2 °F 37.0 °F 28.4 °F 65% 29.93 in 10.0 mi SW 3.5 mph - N/A   Clear
6:07 PM 37.4 °F 34.9 °F 28.4 °F 70% 29.94 in 10.0 mi SW 3.5 mph - N/A   Clear
6:28 PM 32.0 °F - 26.6 °F 80% 29.94 in 10.0 mi Calm Calm - N/A   Clear
6:47 PM 37.4 °F 33.8 °F 28.4 °F 70% 29.95 in 10.0 mi SW 4.6 mph - N/A   Clear
7:07 PM 37.4 °F 32.1 °F 28.4 °F 70% 29.95 in 10.0 mi SW 6.9 mph - N/A   Clear
7:27 PM 37.4 °F 32.1 °F 28.4 °F 70% 29.95 in 10.0 mi WSW 6.9 mph - N/A   Clear
7:47 PM 30.2 °F - 26.6 °F 86% 29.95 in 10.0 mi Calm Calm - N/A   Clear
8:07 PM 33.8 °F 29.6 °F 26.6 °F 75% 29.96 in 10.0 mi WSW 4.6 mph - N/A   Clear
8:28 PM 32.0 °F 27.5 °F 26.6 °F 80% 29.96 in 10.0 mi WSW 4.6 mph - N/A   Clear
8:47 PM 35.6 °F 30.7 °F 28.4 °F 75% 29.96 in 10.0 mi WSW 5.8 mph - N/A   Clear
9:07 PM 32.0 °F 28.7 °F 26.6 °F 80% 29.95 in 10.0 mi WSW 3.5 mph - N/A   Clear
9:27 PM 28.4 °F 24.6 °F 24.8 °F 86% 29.95 in 10.0 mi West 3.5 mph - N/A   Clear
9:47 PM 32.0 °F 27.5 °F 26.6 °F 80% 29.95 in 10.0 mi WSW 4.6 mph - N/A   Clear
10:08 PM 35.6 °F 29.9 °F 28.4 °F 75% 29.95 in 10.0 mi WSW 6.9 mph - N/A   Clear
10:27 PM 35.6 °F 30.7 °F 28.4 °F 75% 29.96 in 10.0 mi WSW 5.8 mph - N/A   Clear
10:47 PM 30.2 °F 26.7 °F 26.6 °F 86% 29.96 in 10.0 mi WSW 3.5 mph - N/A   Clear
11:08 PM 35.6 °F 31.7 °F 26.6 °F 70% 29.96 in 10.0 mi WSW 4.6 mph - N/A   Clear
11:27 PM 33.8 °F - 26.6 °F 75% 29.96 in 10.0 mi Calm Calm - N/A   Clear
11:47 PM 30.2 °F - 26.6 °F 86% 29.95 in 10.0 mi Calm Calm - N/A   Clear